EW1392 Weather Reports


Display with metric or nautical units.
time (UTC)temp
F
wind
direction
speed
MPH
gust
MPH
rain 1hr
in
rain 24hr
in
rain mn
in
humidity
%
barometer
mb
20260504081549 47 294 0.0 0.0 0.00 0.00 0.00 87 1008.9
20260504044535 58 294 0.0 0.0 0.00 0.00 0.00 73 1008.2
20260504043034 59 294 0.0 0.0 0.00 0.00 0.00 71 1008.1
20260504041541 61 294 0.0 0.0 0.00 0.00 0.00 69 1008.1
20260504040039 62 294 0.0 0.0 0.00 0.00 0.00 66 1007.9
20260504034541 63 294 0.0 0.0 0.00 0.00 0.00 63 1007.8
20260504033032 65 294 0.0 0.0 0.00 0.00 0.00 60 1007.4
20260504031533 68 294 0.0 0.0 0.00 0.00 0.00 56 1007.2
20260504030035 70 294 0.0 0.0 0.00 0.00 0.00 52 1007.1
20260504024531 72 294 0.0 0.0 0.00 0.00 0.00 48 1007.0
20260504023030 74 324 0.0 3.0 0.00 0.00 0.00 42 1006.9
20260504021530 75 160 0.0 2.0 0.00 0.00 0.00 39 1006.9
20260504020036 77 200 0.0 1.0 0.00 0.00 0.00 35 1006.9
20260504014531 77 203 0.0 3.0 0.00 0.00 0.00 33 1006.9
20260504013032 79 221 0.0 1.0 0.00 0.00 0.00 33 1007.0
20260504011526 80 205 0.0 5.0 0.00 0.00 0.00 29 1007.0
20260504010025 81 213 0.0 3.0 0.00 0.00 0.00 29 1007.0
20260504004525 82 225 0.0 4.0 0.00 0.00 0.00 26 1007.0
20260504003023 82 200 1.0 4.0 0.00 0.00 0.00 24 1007.1
20260504001530 82 12 0.0 2.0 0.00 0.00 0.00 28 1007.2
20260504000022 83 32 0.0 2.0 0.00 0.00 0.00 24 1007.3
20260503234521 83 213 1.0 6.0 0.00 0.00 0.00 23 1007.4
20260503233020 83 38 0.0 2.0 0.00 0.00 0.00 23 1007.6
20260503231517 83 253 1.0 3.0 0.00 0.00 0.00 23 1007.9
20260503230034 83 71 0.0 2.0 0.00 0.00 0.00 22 1007.9
20260503224515 82 277 0.0 2.0 0.00 0.00 0.00 24 1008.3
20260503223011 82 304 0.0 2.0 0.00 0.00 0.00 24 1008.5
20260503221509 82 285 0.0 1.0 0.00 0.00 0.00 24 1008.8
20260503220009 81 346 0.0 2.0 0.00 0.00 0.00 24 1009.0
20260503214510 82 278 0.0 3.0 0.00 0.00 0.00 24 1009.3
20260503213002 82 105 0.0 3.0 0.00 0.00 0.00 24 1009.6
20260503211501 82 178 0.0 1.0 0.00 0.00 0.00 24 1009.7
20260503210059 82 178 0.0 2.0 0.00 0.00 0.00 24 1010.0
20260503204619 82 209 0.0 4.0 0.00 0.00 0.00 25 1010.2
20260503203100 82 298 0.0 3.0 0.00 0.00 0.00 24 1010.4
20260503201552 81 14 0.0 3.0 0.00 0.00 0.00 25 1010.7
20260503200048 80 5 0.0 3.0 0.00 0.00 0.00 25 1010.8
20260503194547 79 236 0.0 2.0 0.00 0.00 0.00 27 1011.1
20260503193046 78 309 0.0 2.0 0.00 0.00 0.00 31 1011.4
20260503191604 78 48 0.0 1.0 0.00 0.00 0.00 32 1011.7
20260503190040 77 27 0.0 4.0 0.00 0.00 0.00 31 1012.0
20260503184536 75 167 0.0 1.0 0.00 0.00 0.00 36 1012.2
20260503183028 74 168 0.0 3.0 0.00 0.00 0.00 37 1012.5
20260503181529 72 221 0.0 1.0 0.00 0.00 0.00 44 1012.7
20260503180025 70 190 0.0 1.0 0.00 0.00 0.00 49 1012.9
20260503174515 69 190 0.0 2.0 0.00 0.00 0.00 49 1013.1
20260503173014 68 240 0.0 0.0 0.00 0.00 0.00 49 1013.3
20260503171508 67 243 0.0 1.0 0.00 0.00 0.00 52 1013.6